Wind_Speed
23 22 25 25 24 21 20 20 19 17 14 13 13 13 11 9 9 7 6 5 5 6 9 11 12 13 15
23 23 26 26 26 25 22 19 18 17 16 16 15 14 12 10 9 7 5 3 3 2 4 8 10 11 13
23 19 22 24 23 23 22 21 19 17 16 15 14 12 13 12 10 8 6 5 3 3 2 1 4 8 10
17 19 19 21 18 20 22 20 19 17 16 16 16 15 14 14 12 12 8 7 5 3 2 4 3 2 5
15 14 17 16 19 18 19 21 20 20 20 19 17 16 14 14 13 13 12 10 9 8 6 4 4 3 2
14 14 19 21 21 21 22 12 3 8 10 12 11 10 9 13 13 13 14 13 12 11 10 8 7 5 4
19 18 19 22 19 15 15 14 11 15 10 13 17 19 13 12 13 13 15 15 14 13 12 10 9 8 7
17 19 20 20 18 16 15 13 12 14 13 6 8 12 9 9 11 12 13 14 14 14 13 10 9 8 7
15 16 16 16 15 14 16 10 5 7 8 9 6 6 9 11 11 11 13 14 14 13 14 11 9 8 7
16 16 15 16 14 15 17 14 9 3 8 10 4 3 2 2 3 8 11 11 12 12 13 13 10 10 9
18 18 17 16 14 14 16 19 16 14 7 11 9 7 5 3 2 1 7 11 13 12 12 14 13 12 12
18 18 17 17 14 9 9 14 18 19 17 14 7 13 9 5 5 5 7 9 10 13 14 16 15 15 14
20 21 19 16 13 15 14 10 13 14 17 20 20 18 15 11 5 8 7 8 10 10 11 12 15 18 19
19 22 18 15 14 11 13 12 12 14 14 16 18 20 20 20 18 15 13 7 6 11 14 12 12 14 15
20 18 17 14 14 12 14 15 12 9 11 10 13 17 20 19 14 21 20 18 19 18 18 20 18 16 18
19 17 16 18 15 13 12 14 13 13 13 12 10 9 7 11 19 21 18 19 18 15 16 16 21 18 18
22 19 19 18 16 14 14 13 13 14 16 14 12 11 2 3 3 11 20 16 12 12 14 17 15 8 5
Wind_Direction
276 277 278 279 285 285 294 296 294 295 287 285 281 280 280 286 296 308 314 329 351 10 28 34 38 46 54
280 278 275 283 286 285 284 283 284 290 288 283 277 270 263 266 277 283 288 295 299 337 31 41 47 45 49
275 277 277 283 284 285 285 282 281 280 279 284 279 265 253 255 257 256 252 263 255 233 233 335 57 53 59
266 274 272 284 280 281 286 285 284 277 273 278 272 263 253 251 250 252 240 229 230 232 214 200 189 116 74
264 271 268 267 267 281 280 288 285 279 278 275 265 257 246 240 248 250 245 237 223 219 212 200 194 182 159
261 256 269 274 281 283 278 278 285 265 260 267 251 239 258 259 253 246 245 240 232 222 216 213 207 205 196
265 262 272 279 286 283 269 264 253 268 268 273 272 274 267 266 258 253 239 231 230 224 224 219 212 206 203
280 277 277 280 276 274 273 272 269 269 255 259 261 272 271 255 262 258 242 232 223 214 217 220 221 217 216
296 295 296 290 276 262 251 239 249 252 239 238 256 269 276 269 255 248 232 224 221 217 211 213 216 225 223
302 299 301 293 275 262 258 230 218 245 230 203 242 246 297 307 279 233 220 207 209 217 214 214 217 223 239
300 298 296 292 289 266 249 246 237 231 234 201 213 214 228 295 307 166 201 207 215 215 211 214 222 226 240
295 293 298 298 297 283 269 257 253 254 261 244 228 222 220 216 228 229 234 227 224 222 220 217 222 231 234
283 290 294 289 285 291 281 275 265 257 253 251 250 242 233 220 224 227 216 233 237 229 225 229 234 233 238
286 287 293 274 270 283 285 278 278 276 267 256 251 243 241 242 238 233 232 217 221 238 239 242 242 242 246
295 299 284 275 275 281 276 265 253 256 270 277 260 249 247 250 237 247 246 238 241 244 251 263 260 253 257
299 300 295 280 273 276 269 266 251 254 254 259 260 236 244 251 243 247 250 252 252 243 239 250 262 258 260
296 298 296 283 264 262 269 266 258 254 254 255 234 218 162 223 248 233 241 252 241 232 233 232 248 263 246
Height
776 776 774 773 772 771 770 769 768 767 764 762 761 760 759 758 757 756 756 756 756 756 756 756 754 751 749
770 769 768 767 767 766 764 763 762 762 761 759 756 755 755 754 754 754 753 752 752 754 754 755 754 753 752
764 763 762 762 761 759 759 757 756 756 755 755 754 752 751 751 750 749 750 751 750 750 751 753 753 754 753
762 758 757 756 756 755 751 751 751 751 750 749 749 749 748 748 748 747 747 746 747 749 749 749 750 752 752
757 755 751 751 750 750 748 746 745 744 743 744 743 743 742 742 744 744 745 745 745 746 748 748 748 749 750
751 749 746 746 745 745 744 743 742 739 738 739 738 739 740 740 739 738 741 743 744 744 744 746 746 747 747
744 743 741 740 741 739 738 739 739 738 738 735 736 735 736 736 737 737 736 738 741 743 744 744 744 745 745
740 738 737 736 735 735 735 734 734 733 734 733 730 731 731 732 732 733 734 736 737 738 741 743 744 744 745
736 734 733 732 731 730 730 730 730 729 728 730 728 727 728 727 728 728 730 732 735 737 739 739 742 743 744
731 729 727 727 726 726 726 726 726 724 724 726 724 726 724 724 723 724 726 728 731 733 736 738 740 741 742
726 724 723 721 720 720 720 720 720 720 719 721 720 722 724 723 722 722 723 725 727 730 732 735 737 738 740
722 719 718 717 715 716 715 715 715 715 717 717 717 717 719 720 721 721 722 723 724 726 728 730 732 735 736
717 716 714 713 711 712 711 711 711 710 711 711 712 713 715 715 718 717 719 720 720 722 724 726 728 730 732
714 711 710 708 707 708 707 707 707 706 707 707 707 708 709 710 712 715 716 718 717 718 720 722 723 725 727
709 707 705 705 704 704 704 703 703 703 703 704 704 704 705 706 707 708 710 712 713 715 716 716 718 720 721
705 703 701 701 700 700 699 699 699 698 699 700 701 701 703 701 701 703 705 706 707 709 710 712 711 713 714
702 700 698 696 696 695 695 695 695 694 694 695 696 698 700 701 698 698 699 700 702 703 704 705 705 707 709